Weather History for KGDB - September, 2012

Change the Weather History Date:

Tuesday, September 18, 2012

  Actual Average (KMVE) Record (KMVE)
Temperature  
Mean Temperature 46 °F -  
Max Temperature 59 °F 73 °F 94 °F (1955)
Min Temperature 32 °F 47 °F 32 °F (1971)
Degree Days  
Heating Degree Days 20    
Moisture  
Dew Point 34 °F    
Average Humidity 64    
Maximum Humidity 98    
Minimum Humidity 31    
Precipitation  
Precipitation 0.00 in - - ()
Sea Level Pressure  
Sea Level Pressure 30.01 in    
Wind  
Wind Speed 5 mph (WSW)    
Max Wind Speed 9 mph    
Max Gust Speed -    
Visibility 10 miles    
Events      
Averages and records for this station are not official NWS values.
T = Trace of Precipitation, MM = Missing Value Source: NWS Daily Summary

Daily Weather History Graph

Daily Weather History Graph

Search for Another Location

Airport or City:

Trip Planner

Search our weather history database for the weather conditions in past years. The results will help you decide how hot, cold, wet, or windy it might be!

Date:

Astronomy

Sep. 18, 2012 Rise Set
Actual Time 7:05 AM CDT 7:26 PM CDT
Civil Twilight 6:35 AM CDT 7:55 PM CDT
Nautical Twilight 6:01 AM CDT 8:29 PM CDT
Astronomical Twilight 5:25 AM CDT 9:05 PM CDT
Moon 10:16 AM CDT (9/18) 8:38 PM CDT (9/18)
Length of Visible Light 13h 19m
Length of Day
12h 21m
Waxing Crescent, 9% of the Moon is Illuminated
Sep 18
Waxing Crescent
Sep 22
First Quarter
Sep 29
Full
Oct 8
Last Quarter
Oct 15
New

Hourly Weather History & Observations

Time (CDT) Temp. Windchill Dew Point Humidity Pressure Visibility Wind Dir Wind Speed Gust Speed Precip Events Conditions
12:12 AM 38.8 °F 33.8 °F 35.6 °F 88% 30.08 in 10.0 mi West 6.9 mph - N/A   Clear
12:32 AM 38.3 °F 33.9 °F 35.6 °F 90% 30.07 in 10.0 mi West 5.8 mph - N/A   Clear
12:52 AM 36.7 °F 31.2 °F 34.3 °F 91% 30.07 in 10.0 mi West 6.9 mph - N/A   Clear
1:12 AM 36.5 °F 31.8 °F 34.5 °F 93% 30.07 in 10.0 mi West 5.8 mph - N/A   Clear
1:32 AM 35.8 °F 30.1 °F 34.0 °F 93% 30.08 in 10.0 mi West 6.9 mph - N/A   Clear
1:52 AM 35.6 °F 29.9 °F 34.0 °F 94% 30.08 in 10.0 mi West 6.9 mph - N/A   Clear
2:12 AM 36.0 °F 31.1 °F 34.5 °F 94% 30.08 in 10.0 mi West 5.8 mph - N/A   Clear
2:32 AM 34.7 °F 29.6 °F 33.3 °F 94% 30.07 in 10.0 mi West 5.8 mph - N/A   Clear
2:52 AM 34.7 °F 29.6 °F 33.3 °F 94% 30.07 in 10.0 mi West 5.8 mph - N/A   Clear
3:12 AM 33.8 °F 28.6 °F 32.5 °F 95% 30.07 in 10.0 mi WNW 5.8 mph - N/A   Clear
3:32 AM 33.8 °F 28.6 °F 32.4 °F 94% 30.06 in 10.0 mi West 5.8 mph - N/A   Clear
3:52 AM 33.1 °F 27.7 °F 32.0 °F 96% 30.06 in 10.0 mi West 5.8 mph - N/A   Clear
4:12 AM 33.1 °F 27.7 °F 32.0 °F 96% 30.06 in 10.0 mi West 5.8 mph - N/A   Clear
4:32 AM 32.9 °F 28.5 °F 32.0 °F 96% 30.06 in 10.0 mi West 4.6 mph - N/A   Clear
4:52 AM 32.7 °F 27.3 °F 32.0 °F 97% 30.06 in 10.0 mi West 5.8 mph - N/A   Clear
5:12 AM 32.2 °F 27.7 °F 31.6 °F 98% 30.07 in 10.0 mi West 4.6 mph - N/A   Clear
5:32 AM 32.0 °F 26.4 °F 31.5 °F 98% 30.08 in 10.0 mi West 5.8 mph - N/A   Clear
5:52 AM 32.0 °F 26.4 °F 31.1 °F 96% 30.08 in 10.0 mi WSW 5.8 mph - N/A   Clear
6:12 AM 32.5 °F 28.1 °F 32.0 °F 98% 30.09 in 10.0 mi West 4.6 mph - N/A   Clear
6:32 AM 33.3 °F 28.9 °F 32.2 °F 96% 30.08 in 10.0 mi West 4.6 mph - N/A   Clear
7:12 AM 34.7 °F 30.6 °F 33.8 °F 97% 30.08 in 10.0 mi West 4.6 mph - N/A   Clear
7:32 AM 35.6 °F 32.8 °F 34.2 °F 94% 30.08 in 10.0 mi West 3.5 mph - N/A   Clear
7:52 AM 36.5 °F 32.7 °F 35.2 °F 95% 30.09 in 10.0 mi West 4.6 mph - N/A   Clear
8:12 AM 38.3 °F 34.8 °F 36.9 °F 95% 30.09 in 10.0 mi West 4.6 mph - N/A   Clear
8:32 AM 39.4 °F 37.2 °F 37.4 °F 93% 30.09 in 10.0 mi West 3.5 mph - N/A   Clear
8:52 AM 41.2 °F 37.3 °F 37.9 °F 88% 30.09 in 10.0 mi West 5.8 mph - N/A   Clear
9:12 AM 42.8 °F 41.1 °F 38.7 °F 85% 30.09 in 10.0 mi WNW 3.5 mph - N/A   Clear
9:32 AM 44.6 °F 43.1 °F 38.7 °F 80% 30.09 in 10.0 mi WNW 3.5 mph - N/A   Clear
9:52 AM 47.3 °F - 39.7 °F 75% 30.09 in 10.0 mi WNW 3.5 mph - N/A   Clear
10:12 AM 49.3 °F - 39.7 °F 70% 30.09 in 10.0 mi West 3.5 mph - N/A   Clear
10:32 AM 49.5 °F - 38.8 °F 67% 30.09 in 10.0 mi Calm Calm - N/A   Clear
10:52 AM 51.8 °F - 37.0 °F 57% 30.08 in 10.0 mi WNW 4.6 mph - N/A   Clear
11:11 AM 52.9 °F - 36.3 °F 53% 30.07 in 10.0 mi WNW 5.8 mph - N/A   Clear
11:30 AM 54.1 °F - 36.0 °F 50% 30.07 in 10.0 mi West 3.5 mph - N/A   Clear
11:52 AM 54.7 °F - 35.4 °F 48% 30.06 in 10.0 mi West 4.6 mph - N/A   Clear
12:12 PM 56.3 °F - 35.2 °F 45% 30.06 in 10.0 mi Calm Calm - N/A   Clear
12:32 PM 56.5 °F - 34.0 °F 43% 30.05 in 10.0 mi Calm Calm - N/A   Mostly Cloudy
12:52 PM 58.1 °F - 32.5 °F 38% 30.04 in 7.0 mi South 3.5 mph - N/A   Scattered Clouds
1:12 PM 59.2 °F - 31.3 °F 35% 30.03 in 10.0 mi SW 5.8 mph - N/A   Clear
1:31 PM 59.0 °F - 28.6 °F 31% 30.03 in 10.0 mi West 5.8 mph - N/A   Clear
1:52 PM 59.9 °F - 31.5 °F 34% 30.02 in 10.0 mi West 3.5 mph - N/A   Clear
2:12 PM 58.5 °F - 29.3 °F 33% 30.01 in 10.0 mi WNW 4.6 mph - N/A   Scattered Clouds
2:32 PM 58.6 °F - 28.8 °F 32% 30.01 in 10.0 mi West 5.8 mph - N/A   Scattered Clouds
2:47 PM 58.3 °F - 28.9 °F 33% 30.00 in 10.0 mi Calm Calm - N/A   Mostly Cloudy
3:12 PM 59.0 °F - 28.8 °F 32% 30.00 in 10.0 mi WNW 4.6 mph - N/A   Overcast
3:32 PM 59.0 °F - 29.5 °F 33% 29.99 in 10.0 mi SSE 3.5 mph - N/A   Overcast
3:53 PM 59.0 °F - 30.2 °F 34% 29.98 in 10.0 mi Calm Calm - N/A   Overcast
4:12 PM 59.2 °F - 29.3 °F 32% 29.97 in 10.0 mi Calm Calm - N/A   Overcast
4:32 PM 59.0 °F - 29.3 °F 32% 29.97 in 10.0 mi South 3.5 mph - N/A   Overcast
4:52 PM 58.5 °F - 30.0 °F 34% 29.96 in 10.0 mi South 5.8 mph - N/A   Overcast
5:12 PM 58.3 °F - 30.6 °F 35% 29.95 in 10.0 mi South 4.6 mph - N/A   Overcast
5:32 PM 58.1 °F - 31.5 °F 36% 29.95 in 10.0 mi SSE 3.5 mph - N/A   Overcast
5:52 PM 57.7 °F - 32.2 °F 38% 29.94 in 10.0 mi SSE 4.6 mph - N/A   Overcast
6:12 PM 57.4 °F - 34.3 °F 42% 29.94 in 10.0 mi South 3.5 mph - N/A   Overcast
6:32 PM 57.0 °F - 34.2 °F 42% 29.94 in 10.0 mi SSE 3.5 mph - N/A   Overcast
6:52 PM 56.3 °F - 34.0 °F 43% 29.93 in 10.0 mi SE 4.6 mph - N/A   Overcast
7:12 PM 55.9 °F - 34.7 °F 45% 29.92 in 10.0 mi SE 4.6 mph - N/A   Overcast
7:32 PM 55.9 °F - 34.7 °F 45% 29.91 in 10.0 mi ESE 6.9 mph - N/A   Overcast
7:52 PM 55.0 °F - 36.1 °F 49% 29.91 in 10.0 mi ESE 6.9 mph - N/A   Overcast
8:12 PM 54.7 °F - 34.7 °F 47% 29.90 in 10.0 mi SE 8.1 mph - N/A   Overcast
8:32 PM 53.8 °F - 34.2 °F 47% 29.89 in 10.0 mi SE 8.1 mph - N/A   Scattered Clouds
8:52 PM 52.7 °F - 34.7 °F 50% 29.89 in 10.0 mi SE 6.9 mph - N/A   Scattered Clouds
9:12 PM 52.3 °F - 34.9 °F 51% 29.89 in 10.0 mi SE 8.1 mph - N/A   Scattered Clouds
9:32 PM 52.0 °F - 34.7 °F 52% 29.88 in 10.0 mi SE 6.9 mph - N/A   Clear
9:52 PM 51.3 °F - 33.6 °F 51% 29.87 in 10.0 mi ESE 6.9 mph - N/A   Clear
10:32 PM 50.5 °F - 34.0 °F 53% 29.86 in 10.0 mi SE 9.2 mph - N/A   Clear
10:52 PM 50.5 °F - 34.2 °F 53% 29.85 in 10.0 mi SE 9.2 mph - N/A   Clear
11:32 PM 50.0 °F - 34.3 °F 55% 29.83 in 10.0 mi SE 9.2 mph - N/A   Clear
11:52 PM 50.2 °F - 34.3 °F 55% 29.83 in 10.0 mi SE 9.2 mph - N/A   Clear